TimeCDT,TemperatureF,Dew PointF,Humidity,Sea Level PressureIn,VisibilityMPH,Wind Direction,Wind SpeedMPH,Gust SpeedMPH,PrecipitationIn,Events,Conditions,WindDirDegrees,DateUTC
12:52 AM,51.1,46.0,83,30.12,10.0,Calm,Calm,-,N/A,,Clear,0,2013-06-20 05:52:00
1:52 AM,52.0,46.9,83,30.13,10.0,Calm,Calm,-,N/A,,Clear,0,2013-06-20 06:52:00
2:52 AM,52.0,48.9,89,30.12,10.0,Calm,Calm,-,N/A,,Clear,0,2013-06-20 07:52:00
3:52 AM,52.0,50.0,93,30.12,10.0,Calm,Calm,-,N/A,,Clear,0,2013-06-20 08:52:00
4:52 AM,52.0,50.0,93,30.13,10.0,Calm,Calm,-,N/A,,Clear,0,2013-06-20 09:52:00
5:52 AM,53.1,50.0,89,30.14,10.0,Calm,Calm,-,N/A,,Clear,0,2013-06-20 10:52:00
6:52 AM,63.0,53.1,70,30.14,10.0,Calm,Calm,-,N/A,,Clear,0,2013-06-20 11:52:00
7:52 AM,68.0,53.1,59,30.14,10.0,SE,4.6,-,N/A,,Clear,130,2013-06-20 12:52:00
8:52 AM,70.0,54.0,57,30.15,10.0,SSE,5.8,-,N/A,,Clear,150,2013-06-20 13:52:00
9:52 AM,73.9,57.9,57,30.14,10.0,SE,3.5,-,N/A,,Clear,130,2013-06-20 14:52:00
10:52 AM,75.9,61.0,60,30.14,10.0,East,6.9,-,N/A,,Clear,80,2013-06-20 15:52:00
11:52 AM,75.9,60.1,58,30.14,10.0,East,8.1,-,N/A,,Clear,100,2013-06-20 16:52:00
12:52 PM,75.9,57.9,54,30.14,10.0,ESE,9.2,-,N/A,,Clear,120,2013-06-20 17:52:00
1:52 PM,77.0,57.9,52,30.13,10.0,SE,10.4,-,N/A,,Clear,130,2013-06-20 18:52:00
2:52 PM,77.0,59.0,54,30.12,10.0,ESE,11.5,18.4,N/A,,Clear,120,2013-06-20 19:52:00
3:52 PM,75.9,55.9,50,30.11,10.0,ESE,12.7,-,N/A,,Clear,120,2013-06-20 20:52:00
4:52 PM,77.0,55.9,48,30.10,10.0,ESE,8.1,-,N/A,,Clear,120,2013-06-20 21:52:00
5:52 PM,75.9,55.0,48,30.09,10.0,SE,9.2,-,N/A,,Clear,130,2013-06-20 22:52:00
6:52 PM,73.0,54.0,51,30.06,10.0,ESE,8.1,-,N/A,,Clear,120,2013-06-20 23:52:00
7:52 PM,70.0,54.0,57,30.07,10.0,ESE,6.9,-,N/A,,Clear,110,2013-06-21 00:52:00
8:52 PM,68.0,54.0,61,30.08,10.0,ESE,4.6,-,N/A,,Clear,110,2013-06-21 01:52:00
9:52 PM,66.9,54.0,63,30.09,10.0,East,4.6,-,N/A,,Clear,100,2013-06-21 02:52:00
10:52 PM,66.9,55.0,66,30.09,10.0,ESE,4.6,-,N/A,,Clear,110,2013-06-21 03:52:00
11:52 PM,66.9,55.9,68,30.09,10.0,ESE,4.6,-,N/A,,Clear,120,2013-06-21 04:52:00